Temperature
20 20 20 20 21 20 20 20 20 20 20 20 20 19 19 19 19 19 19 19 19 19 19 19 19 19 19 19 19 19 19 19 19 20 20 20 20 20 20 19 19 19 19
21 20 20 21 21 21 20 20 20 20 20 20 20 20 20 19 19 19 19 19 19 19 19 19 19 19 19 19 19 20 20 19 19 20 20 20 20 20 20 20 19 19 19
21 20 20 21 21 21 21 20 20 20 20 20 20 20 19 20 19 19 19 19 19 19 19 19 19 19 19 19 19 20 20 20 20 19 19 18 19 19 19 20 19 19 19
22 21 21 21 21 21 21 20 20 20 20 19 19 19 19 19 19 19 19 19 19 19 19 19 19 20 20 20 20 20 20 20 20 19 18 18 18 18 18 19 19 19 19
22 21 21 21 21 21 21 20 20 20 19 19 19 19 19 19 19 19 19 19 19 19 20 20 20 20 20 20 20 20 20 19 19 19 18 18 18 17 18 18 18 19 19
22 21 21 21 21 21 20 20 20 20 20 19 19 19 19 19 19 19 19 19 19 19 19 20 20 20 20 20 20 20 20 19 19 18 18 18 18 18 18 18 18 18 19
21 21 21 21 21 21 20 20 20 20 20 19 19 19 19 19 19 19 19 19 19 19 19 19 19 19 19 19 19 19 19 19 19 19 18 18 18 18 18 18 18 18 18
22 21 21 21 21 21 20 20 20 20 20 19 19 19 19 19 19 19 19 19 19 19 19 19 19 19 19 19 19 19 19 19 19 19 18 18 18 18 17 17 18 18 18
22 21 21 21 21 21 21 20 20 20 20 20 19 19 19 19 19 19 19 19 19 19 19 19 19 19 19 19 19 19 19 19 19 19 18 18 18 17 17 17 17 17 18
22 22 21 21 21 21 21 20 20 20 20 20 20 20 19 19 19 19 19 19 19 19 18 18 19 19 19 19 19 19 19 19 19 18 18 18 18 18 17 17 17 17 17
21 22 22 21 21 21 21 20 20 20 20 20 20 19 19 19 19 19 18 18 18 18 18 18 18 19 19 19 18 18 18 18 18 18 18 18 18 18 17 17 17 17 17
21 21 22 22 21 21 21 20 20 20 20 20 20 19 19 19 19 18 18 18 18 18 18 18 18 19 18 18 18 18 18 18 18 18 18 18 18 18 17 17 17 17 17
22 21 21 22 21 21 21 20 20 20 20 20 19 19 19 19 18 18 18 18 18 18 18 18 18 18 18 18 18 18 18 18 18 18 18 18 18 18 17 17 17 17 17
21 21 21 21 21 21 20 20 20 20 19 19 19 19 19 19 18 18 18 18 18 18 18 18 18 18 18 18 18 18 18 17 17 17 17 17 17 17 17 17 17 17 17
21 21 21 20 21 20 20 19 19 19 19 19 19 19 18 18 18 18 18 18 18 18 18 18 18 18 18 18 18 18 18 17 17 17 17 17 17 17 17 17 17 17 17
21 21 21 20 20 19 19 19 19 19 19 19 19 19 18 18 18 18 18 18 18 18 18 18 18 18 18 18 18 18 18 17 17 17 17 17 17 17 17 17 17 17 17
22 21 21 20 20 19 19 19 19 19 19 19 19 19 18 18 18 18 18 18 18 18 18 18 18 18 18 18 18 18 18 18 18 18 17 17 17 18 17 17 17 17 17
22 21 21 21 20 20 20 19 19 19 19 19 19 19 18 18 18 18 18 18 18 18 18 18 18 18 18 18 18 18 18 18 18 18 18 18 18 18 18 18 17 17 17
22 21 21 21 21 21 20 20 20 19 19 19 19 18 18 18 18 18 18 18 18 18 18 18 18 18 18 18 18 18 18 18 19 18 18 18 19 18 18 18 18 18 18
22 22 21 21 21 20 20 20 20 19 19 18 18 18 18 18 18 18 18 18 18 18 18 18 18 18 18 18 18 18 18 19 19 19 18 19 18 18 18 18 18 18 18
21 21 21 21 20 20 20 19 19 19 18 18 18 18 18 18 18 17 17 17 17 17 17 17 17 17 18 18 17 18 18 18 19 19 19 19 19 18 18 18 18 18 18
21 20 20 20 20 19 19 19 18 18 18 18 18 17 17 17 17 17 17 17 17 17 17 17 17 17 17 17 17 17 17 18 19 19 19 19 19 18 18 18 18 18 18
20 20 20 19 19 19 19 19 18 18 18 18 17 17 17 17 17 17 17 17 17 17 17 17 17 16 17 17 17 17 17 18 18 19 19 19 18 18 18 18 18 18 18
20 20 19 19 19 19 19 19 18 18 18 18 18 18 17 17 17 17 17 17 17 16 16 16 16 16 16 17 17 17 17 17 17 17 18 18 18 18 18 18 18 18 18
19 18 18 18 18 18 18 18 18 18 17 17 17 17 17 17 17 17 16 16 16 16 16 16 16 16 16 16 17 17 17 17 17 16 17 18 18 18 18 18 17 18 18
17 17 17 17 17 17 17 17 17 17 17 17 17 17 17 17 16 16 16 16 16 15 15 15 16 16 16 16 16 16 16 16 16 16 16 17 17 17 17 17 17 17 18
Wind_Speed
10 15 23 22 21 20 18 16 15 14 14 15 16 16 16 16 15 15 14 14 13 12 10 9 9 9 10 11 11 11 11 11 12 12 12 12 11 10 10 12 11 10 10
14 19 24 24 22 21 19 17 16 15 14 14 14 14 14 14 14 14 13 12 12 11 10 9 8 8 8 9 9 9 9 8 9 9 9 10 9 10 11 12 10 9 9
18 19 23 24 23 22 20 18 17 15 14 14 13 13 13 13 13 13 12 11 11 10 9 8 8 7 7 8 8 7 6 6 6 6 5 5 5 7 11 13 12 10 9
18 20 21 24 23 22 21 19 18 16 14 13 12 12 11 11 12 12 11 10 9 8 8 8 7 7 6 7 7 6 5 4 4 4 4 4 5 6 9 12 13 11 9
15 18 22 24 23 22 21 20 19 17 15 13 13 12 12 11 11 11 10 9 8 7 7 7 7 6 6 6 6 6 6 6 5 5 6 7 9 10 11 12 13 12 10
13 16 20 22 22 22 21 21 20 18 16 15 14 14 13 12 12 11 10 10 9 8 7 6 6 7 6 6 6 6 7 7 7 6 7 10 13 16 16 14 14 13 12
13 15 20 22 21 21 21 21 20 19 17 15 15 14 14 13 13 12 11 10 9 9 7 6 6 6 7 7 7 7 8 8 9 8 7 8 12 18 19 16 14 13 13
17 14 18 22 22 21 21 22 21 19 17 16 15 15 14 14 14 13 12 11 11 10 9 8 7 7 7 8 9 9 10 10 9 6 6 7 11 18 19 17 16 15 14
16 14 14 18 20 21 20 20 20 19 18 17 17 17 16 16 15 14 13 12 12 11 10 10 9 9 9 9 10 10 11 12 12 10 10 9 11 19 21 19 17 17 17
15 13 11 14 16 16 17 19 19 19 18 18 17 17 16 15 15 14 13 13 13 13 12 11 11 11 11 11 12 12 12 13 13 12 12 12 13 19 22 20 19 19 19
14 12 10 10 12 14 14 17 18 18 18 17 16 16 15 13 12 12 13 15 15 15 14 14 13 13 13 13 14 14 13 12 13 13 13 14 15 19 22 21 20 20 20
16 14 12 11 10 12 14 14 13 14 15 15 14 15 14 12 12 13 14 17 18 17 16 16 15 15 14 12 14 15 13 14 13 13 14 18 18 19 21 22 21 21 19
17 16 14 13 11 11 8 10 10 11 12 13 14 15 13 12 12 12 12 14 17 18 15 13 14 13 12 11 11 12 13 13 12 13 15 19 21 21 21 22 21 19 18
16 16 15 14 12 11 9 9 9 9 9 10 14 15 12 7 7 8 8 10 11 11 10 10 9 11 12 13 12 12 13 12 12 13 16 20 19 18 19 19 19 18 17
13 14 15 14 13 11 8 7 8 8 9 12 13 15 14 8 6 5 4 6 8 9 8 7 7 7 8 10 12 11 10 12 13 14 14 17 17 17 18 17 17 16 16
12 13 13 12 11 9 8 8 5 8 10 10 11 16 17 12 6 4 4 4 6 9 9 8 7 6 6 6 8 8 8 9 11 12 12 14 16 17 18 18 16 16 16
11 12 13 12 10 9 8 7 4 6 8 6 8 12 13 12 9 6 6 6 6 9 8 7 7 6 6 6 7 8 6 8 9 10 12 12 13 15 17 18 18 17 16
9 12 14 13 10 8 7 5 3 3 4 4 5 7 8 10 11 7 6 6 8 8 5 5 5 5 6 6 6 7 7 6 8 10 11 12 12 12 14 17 18 18 18
10 12 12 10 10 9 7 5 4 2 1 1 2 3 3 5 7 6 5 5 7 5 5 6 6 5 6 7 7 7 7 7 8 8 8 10 12 12 13 15 18 19 18
10 11 11 9 9 8 6 4 3 1 0 1 2 3 3 3 3 4 3 5 5 5 6 6 7 7 6 7 7 6 6 6 6 7 9 6 8 11 13 14 14 15 18
9 9 9 7 6 5 4 3 3 2 1 1 2 2 3 3 4 4 4 6 6 6 8 8 7 8 7 5 4 4 5 7 8 8 8 7 6 8 11 13 13 13 13
7 7 6 5 5 5 4 3 3 3 2 1 2 4 5 5 6 5 6 7 7 7 8 9 8 6 6 5 5 3 3 4 4 5 5 7 7 6 8 11 12 12 13
7 6 6 5 5 5 5 4 4 4 3 3 3 3 4 6 7 7 7 8 8 8 8 9 9 10 8 7 6 5 4 5 3 3 3 4 5 6 8 6 8 11 13
9 8 8 7 6 5 5 5 5 3 2 1 1 3 5 6 7 7 7 8 9 8 9 10 10 8 8 7 5 5 4 4 3 3 3 3 4 7 8 7 7 8 11
10 9 8 7 6 5 6 6 6 5 3 1 2 3 4 5 6 7 7 7 7 7 8 9 8 8 7 7 5 4 4 3 3 4 4 4 4 4 5 6 7 7 9
8 9 8 7 5 5 6 6 6 6 3 2 2 3 4 4 5 7 7 7 6 5 5 5 6 6 5 5 5 4 3 3 3 3 4 3 4 4 5 6 7 7 5
Wind_Direction
149 153 148 146 143 141 139 137 129 122 115 108 103 101 102 104 107 113 117 115 114 115 115 113 108 104 102 104 109 113 117 120 117 117 118 112 102 95 105 111 104 100 98
151 154 149 148 146 144 144 143 140 135 126 119 114 111 111 111 112 117 123 124 121 118 114 109 105 107 113 114 117 120 125 128 125 125 127 125 118 110 128 134 118 120 116
144 150 150 149 149 148 147 147 147 144 137 131 126 122 121 121 122 125 129 131 131 128 125 119 115 115 123 129 129 133 141 145 141 140 137 133 136 131 133 141 136 135 134
144 148 150 151 151 151 151 152 151 150 146 141 138 134 132 131 130 130 132 134 136 139 144 143 136 133 137 144 149 155 173 188 181 182 190 205 195 174 160 153 150 151 153
142 147 152 152 155 156 157 157 156 155 154 153 152 149 147 145 141 139 139 141 145 148 152 159 157 154 157 166 172 181 199 221 226 229 235 240 230 203 191 175 166 167 169
140 147 152 152 156 160 162 163 163 163 163 163 164 164 163 161 158 154 154 154 156 157 158 162 168 172 179 191 205 213 222 236 249 250 250 253 232 206 200 192 182 180 184
144 152 155 156 157 161 166 169 169 171 170 169 170 171 172 170 168 168 170 168 165 164 168 176 184 193 201 206 220 235 243 250 256 258 263 271 224 202 201 199 190 190 195
151 156 160 162 162 163 166 171 174 175 174 173 175 176 177 178 180 181 183 183 182 181 184 191 199 206 212 216 225 240 252 259 267 276 291 288 232 212 205 202 199 201 205
154 159 164 168 168 169 169 171 175 176 176 177 180 183 184 188 190 191 193 195 197 198 200 205 212 218 223 227 231 240 252 263 270 277 282 282 247 221 212 206 206 210 211
158 163 166 170 172 173 174 175 176 179 181 183 186 190 193 196 198 200 202 205 209 212 216 220 226 231 234 236 240 243 250 262 269 273 273 272 261 228 219 214 212 216 218
164 169 169 172 173 174 176 180 180 182 185 188 192 197 201 206 210 214 217 218 220 222 226 231 236 242 245 246 249 251 255 254 258 266 269 267 266 243 230 223 222 223 224
171 176 176 178 177 175 181 183 183 184 189 193 197 202 207 211 217 226 234 235 234 232 233 237 241 246 250 248 251 255 253 251 252 259 263 266 269 251 233 231 232 232 232
174 177 181 181 181 181 185 177 185 188 192 200 205 211 213 217 224 232 237 242 242 240 238 242 241 243 246 244 243 249 252 252 249 253 260 267 270 251 233 233 236 238 238
176 181 182 183 184 188 187 182 188 191 197 204 213 216 214 219 225 228 229 226 222 225 227 231 238 244 247 249 247 250 254 251 246 247 256 264 260 242 233 234 238 241 244
180 183 183 186 188 190 189 189 192 198 201 203 207 215 214 216 223 217 211 205 208 217 227 231 235 240 243 247 248 249 252 246 241 241 245 247 237 233 236 240 242 245 251
178 182 184 189 187 176 179 186 187 199 209 205 209 213 212 212 211 192 194 193 204 214 223 228 229 231 243 243 246 246 246 245 241 237 234 235 232 235 242 247 248 249 255
178 175 185 190 183 172 167 170 169 175 173 180 192 196 203 209 207 196 195 201 210 215 222 231 233 232 245 247 249 253 252 252 252 248 243 238 239 243 246 248 249 248 253
176 173 183 189 182 178 172 171 169 164 156 183 193 195 205 212 210 201 202 212 219 221 220 225 225 229 241 243 246 254 254 252 254 252 249 246 244 243 244 247 248 246 249
186 178 181 181 178 182 180 174 171 151 134 181 213 224 235 240 222 208 212 219 220 221 226 231 225 218 236 245 246 249 251 253 253 251 243 245 244 243 244 246 244 244 248
202 186 184 180 181 183 178 167 159 141 158 207 208 216 219 231 220 206 222 233 227 228 236 235 237 234 232 238 250 255 255 256 251 241 242 244 249 249 245 240 239 245 247
201 189 175 158 172 173 169 166 157 167 196 293 300 308 309 284 262 240 242 244 236 232 235 234 235 242 244 233 238 273 276 256 245 241 237 235 247 257 254 244 236 235 241
177 169 151 139 136 152 153 139 131 134 124 89 29 18 9 345 315 289 264 257 252 248 248 242 235 239 242 217 197 211 276 304 282 252 236 230 240 254 257 249 237 233 237
137 129 121 115 115 109 113 113 103 86 65 41 18 0 344 334 316 293 273 266 260 250 251 246 237 235 240 237 203 180 194 228 282 307 261 236 239 248 253 254 243 242 244
122 114 110 111 102 89 89 97 102 106 103 76 2 330 320 321 314 304 288 276 265 255 249 249 243 230 225 235 229 214 205 178 185 281 303 278 256 249 249 251 256 259 254
127 122 120 117 112 108 99 100 101 98 99 59 4 336 324 323 326 328 316 303 283 267 256 251 245 230 219 217 215 208 215 214 194 202 263 298 315 284 263 252 254 257 252
128 131 132 129 124 117 105 102 105 104 92 61 0 331 331 331 333 339 337 333 322 308 289 270 253 235 224 213 207 196 189 200 201 196 230 263 285 292 285 264 259 252 234
Height
1533 1535 1538 1540 1541 1543 1544 1546 1547 1548 1549 1550 1552 1553 1553 1554 1555 1555 1556 1556 1557 1558 1559 1560 1560 1560 1561 1561 1562 1562 1562 1563 1563 1563 1563 1563 1562 1562 1562 1561 1561 1561 1560
1531 1534 1537 1539 1541 1542 1544 1546 1548 1549 1550 1551 1553 1553 1554 1554 1555 1555 1556 1557 1557 1558 1559 1560 1561 1561 1561 1561 1562 1563 1563 1564 1564 1564 1564 1563 1563 1563 1563 1563 1562 1562 1562
1531 1534 1537 1539 1540 1542 1544 1546 1548 1549 1551 1552 1553 1554 1555 1555 1555 1556 1557 1558 1558 1559 1560 1560 1561 1561 1562 1562 1562 1563 1563 1564 1564 1564 1564 1564 1564 1563 1563 1563 1563 1563 1563
1530 1533 1536 1539 1540 1542 1544 1546 1548 1549 1551 1552 1553 1554 1555 1556 1556 1557 1557 1558 1559 1560 1561 1561 1561 1562 1562 1562 1562 1562 1563 1563 1564 1564 1564 1564 1564 1563 1563 1563 1563 1563 1563
1530 1533 1536 1538 1540 1542 1544 1546 1547 1549 1551 1552 1553 1554 1555 1556 1557 1558 1558 1559 1559 1560 1561 1561 1561 1561 1561 1562 1562 1562 1562 1562 1563 1563 1563 1563 1563 1563 1563 1563 1563 1563 1563
1530 1533 1536 1538 1540 1542 1543 1545 1547 1548 1550 1552 1553 1554 1555 1556 1557 1558 1559 1559 1560 1560 1561 1561 1561 1561 1561 1561 1561 1561 1561 1561 1562 1562 1561 1561 1561 1562 1562 1563 1563 1562 1562
1530 1533 1536 1538 1540 1541 1543 1545 1547 1548 1550 1551 1553 1554 1555 1556 1557 1558 1559 1559 1559 1560 1560 1561 1561 1561 1560 1560 1560 1560 1560 1560 1560 1561 1560 1560 1560 1560 1561 1561 1561 1561 1561
1531 1533 1536 1538 1539 1541 1543 1544 1546 1548 1549 1550 1551 1553 1554 1555 1556 1557 1557 1558 1558 1559 1559 1559 1560 1560 1560 1559 1559 1559 1559 1559 1559 1559 1559 1558 1558 1559 1560 1560 1560 1560 1559
1531 1533 1535 1537 1538 1540 1542 1543 1545 1547 1548 1549 1550 1551 1552 1553 1554 1555 1556 1557 1557 1557 1557 1558 1558 1558 1558 1558 1558 1558 1558 1557 1557 1557 1557 1557 1557 1557 1557 1558 1558 1558 1557
1531 1533 1534 1535 1537 1538 1540 1542 1544 1545 1547 1548 1549 1550 1551 1553 1554 1554 1555 1555 1556 1556 1556 1556 1556 1556 1556 1556 1556 1556 1556 1555 1555 1555 1555 1555 1555 1555 1555 1556 1555 1555 1554
1530 1532 1533 1534 1536 1537 1539 1541 1542 1544 1546 1547 1548 1550 1551 1552 1553 1553 1554 1554 1555 1555 1555 1555 1555 1555 1554 1554 1554 1554 1553 1554 1553 1552 1552 1552 1552 1553 1553 1553 1553 1552 1551
1528 1530 1532 1534 1535 1536 1538 1539 1541 1543 1545 1546 1548 1549 1550 1551 1551 1552 1553 1553 1553 1553 1553 1553 1553 1552 1552 1551 1551 1551 1551 1552 1551 1550 1549 1550 1550 1549 1549 1549 1549 1548 1548
1528 1529 1531 1533 1534 1536 1537 1539 1540 1542 1544 1545 1547 1548 1549 1549 1550 1550 1551 1551 1551 1551 1552 1551 1551 1550 1550 1549 1549 1549 1549 1549 1549 1548 1548 1547 1547 1546 1546 1546 1546 1545 1544
1527 1529 1531 1532 1534 1535 1537 1538 1540 1541 1543 1544 1545 1547 1547 1548 1548 1549 1549 1549 1549 1549 1550 1549 1549 1549 1549 1548 1547 1547 1547 1547 1546 1546 1545 1544 1544 1543 1543 1543 1542 1541 1540
1528 1529 1531 1533 1534 1535 1536 1537 1539 1541 1542 1543 1544 1544 1545 1546 1546 1547 1547 1547 1547 1547 1547 1547 1547 1547 1547 1546 1546 1545 1545 1544 1543 1542 1542 1541 1541 1540 1540 1539 1538 1537 1537
1527 1529 1531 1532 1534 1534 1535 1536 1538 1539 1540 1541 1542 1543 1543 1543 1544 1545 1545 1545 1544 1544 1544 1544 1544 1544 1544 1544 1543 1543 1542 1542 1541 1539 1538 1538 1537 1537 1537 1536 1535 1534 1533
1527 1528 1530 1532 1534 1535 1535 1536 1537 1538 1539 1540 1541 1541 1542 1542 1542 1543 1542 1542 1542 1542 1541 1541 1541 1541 1541 1540 1540 1539 1539 1539 1538 1536 1535 1534 1534 1533 1533 1533 1532 1531 1530
1525 1526 1528 1530 1532 1534 1536 1537 1537 1538 1538 1539 1540 1540 1540 1540 1541 1540 1540 1539 1539 1539 1538 1538 1538 1537 1537 1537 1536 1535 1535 1535 1534 1533 1532 1531 1531 1530 1530 1529 1529 1528 1527
1525 1525 1527 1528 1530 1532 1533 1535 1536 1536 1537 1537 1537 1538 1538 1538 1538 1537 1537 1536 1536 1535 1534 1534 1533 1533 1533 1533 1532 1531 1531 1530 1530 1529 1528 1528 1528 1527 1526 1526 1525 1525 1524
1522 1523 1525 1526 1528 1530 1531 1531 1532 1533 1534 1534 1534 1534 1534 1534 1534 1534 1533 1532 1532 1530 1530 1529 1529 1529 1528 1528 1528 1526 1526 1526 1526 1525 1525 1525 1525 1524 1523 1522 1522 1521 1521
1517 1519 1520 1522 1524 1525 1527 1528 1528 1530 1531 1531 1531 1531 1531 1530 1530 1529 1528 1527 1526 1525 1524 1523 1523 1523 1522 1523 1523 1521 1521 1521 1520 1520 1520 1521 1520 1520 1519 1519 1518 1518 1517
1511 1514 1516 1517 1519 1521 1522 1523 1525 1526 1527 1527 1528 1527 1527 1526 1524 1523 1522 1521 1519 1518 1517 1516 1516 1516 1516 1517 1517 1516 1516 1516 1515 1515 1515 1515 1515 1515 1515 1515 1514 1514 1514
1507 1510 1511 1514 1516 1517 1518 1519 1520 1522 1522 1523 1523 1523 1522 1520 1518 1516 1515 1513 1512 1511 1509 1508 1509 1509 1509 1510 1512 1512 1511 1509 1509 1510 1509 1509 1510 1511 1511 1511 1511 1511 1510
1502 1506 1507 1510 1513 1514 1515 1515 1517 1518 1518 1519 1519 1518 1517 1515 1512 1510 1508 1506 1504 1503 1502 1501 1502 1502 1503 1503 1505 1506 1507 1506 1506 1504 1505 1505 1505 1506 1506 1506 1507 1507 1506
1498 1501 1503 1507 1509 1510 1512 1513 1513 1514 1515 1515 1514 1514 1512 1510 1507 1505 1502 1500 1497 1496 1495 1495 1495 1495 1496 1498 1499 1500 1501 1501 1501 1501 1499 1499 1500 1501 1501 1501 1501 1502 1501
1496 1497 1500 1503 1505 1507 1508 1509 1510 1511 1511 1511 1511 1510 1508 1506 1503 1501 1499 1496 1494 1491 1490 1489 1489 1490 1490 1492 1494 1495 1496 1496 1496 1496 1495 1494 1494 1495 1496 1497 1497 1497 1496